Weather History for Avalon, CA

Change the Weather History Date:

Friday, February 15, 2013

  Actual Average Record
Temperature  
Mean Temperature 66 °F -  
Max Temperature 73 °F 54 °F 80 °F (2014)
Min Temperature 59 °F 47 °F 42 °F (2001)
Cooling Degree Days 1    
Growing Degree Days 16 (Base 50)    
Moisture  
Dew Point 22 °F    
Average Humidity 19    
Maximum Humidity 27    
Minimum Humidity 13    
Precipitation  
Precipitation 0.00 in - - ()
Sea Level Pressure  
Sea Level Pressure 30.14 in    
Wind  
Wind Speed 10 mph (ENE)    
Max Wind Speed 14 mph    
Max Gust Speed 17 mph    
Visibility 10 miles    
Events      
Averages and records for this station are not official NWS values.
T = Trace of Precipitation, MM = Missing Value Source: NWS Daily Summary

Daily Weather History Graph

Daily Weather History Graph

Search for Another Location

Airport:

Trip Planner

Search our weather history database for the weather conditions in past years. The results will help you decide how hot, cold, wet, or windy it might be!

Date:

Astronomy

Feb. 15, 2013 Rise Set
Actual Time 6:37 AM PST 5:38 PM PST
Civil Twilight 6:11 AM PST 6:04 PM PST
Nautical Twilight 5:42 AM PST 6:33 PM PST
Astronomical Twilight 5:13 AM PST 7:02 PM PST
Moon 9:36 AM PST (2/15) 11:22 PM PST (2/15)
Length of Visible Light 11h 52m
Length of Day
11h 01m
Waxing Crescent, 31% of the Moon is Illuminated
Feb 15
Waxing Crescent
Feb 17
First Quarter
Feb 25
Full
Mar 4
Last Quarter
Mar 11
New

Hourly Weather History & Observations

Time (PST) Temp. Dew Point Humidity Pressure Visibility Wind Dir Wind Speed Gust Speed Precip Events Conditions
12:51 AM 63.0 °F 25.0 °F 24% 30.13 in 10.0 mi ENE 11.5 mph 17.3 mph N/A   Clear
1:51 AM 60.1 °F 26.1 °F 27% 30.12 in 10.0 mi East 12.7 mph - N/A   Clear
2:51 AM 62.1 °F 23.0 °F 22% 30.10 in 10.0 mi East 12.7 mph - N/A   Clear
3:51 AM 61.0 °F 24.1 °F 24% 30.10 in 10.0 mi East 10.4 mph - N/A   Clear
4:51 AM 60.1 °F 24.1 °F 25% 30.12 in 10.0 mi East 10.4 mph - N/A   Clear
5:51 AM 61.0 °F 21.9 °F 22% 30.12 in 10.0 mi East 12.7 mph - N/A   Clear
6:51 AM 59.0 °F 23.0 °F 25% 30.13 in 10.0 mi East 11.5 mph - N/A   Clear
7:51 AM 64.0 °F 25.0 °F 23% 30.14 in 10.0 mi East 9.2 mph - N/A   Clear
8:51 AM 64.9 °F 26.1 °F 23% 30.16 in 10.0 mi East 9.2 mph - N/A   Clear
9:51 AM 66.9 °F 24.1 °F 20% 30.16 in 10.0 mi East 10.4 mph - N/A   Clear
10:51 AM 69.1 °F 23.0 °F 18% 30.18 in 10.0 mi East 9.2 mph 16.1 mph N/A   Clear
11:51 AM 72.0 °F 21.9 °F 15% 30.15 in 10.0 mi Variable 4.6 mph - N/A   Clear
12:51 PM 71.1 °F 18.0 °F 13% 30.14 in 10.0 mi NE 6.9 mph - N/A   Clear
1:51 PM 71.1 °F 23.0 °F 16% 30.13 in 10.0 mi East 8.1 mph - N/A   Clear
2:51 PM 72.0 °F 25.0 °F 17% 30.12 in 10.0 mi Variable 4.6 mph - N/A   Clear
3:51 PM 73.0 °F 25.0 °F 17% 30.12 in 10.0 mi Variable 4.6 mph - N/A   Clear
4:51 PM 69.1 °F 23.0 °F 18% 30.13 in 10.0 mi NNW 3.5 mph - N/A   Clear
5:51 PM 68.0 °F 21.0 °F 17% 30.14 in 10.0 mi Calm Calm - N/A   Clear
6:51 PM 66.0 °F 19.0 °F 17% 30.16 in 10.0 mi North 5.8 mph - N/A   Clear
7:51 PM 64.9 °F 17.1 °F 16% 30.15 in 10.0 mi NNE 5.8 mph - N/A   Clear
8:51 PM 64.9 °F 16.0 °F 15% 30.17 in 10.0 mi NE 6.9 mph - N/A   Clear
9:51 PM 64.9 °F 19.9 °F 18% 30.16 in 10.0 mi East 13.8 mph - N/A   Clear
10:51 PM 64.9 °F 18.0 °F 16% 30.15 in 10.0 mi ESE 10.4 mph - N/A   Clear
11:51 PM 63.0 °F 16.0 °F 16% 30.14 in 10.0 mi East 9.2 mph - N/A   Clear